User: anonymous   Login
Location: Unspecified
(0.0000°N, 0.0000°E)
Time: 11:06:17
(UTC+00:00)
Language:

Snapshot - Orbit

View from above orbital plane
View from above orbital plane
View from above satellite
View from above satellite

Ground track
Ground track

The orbit data is extracted from the following two-line orbital elements,

1  1314U 65027A   17149.88418970 +.00000007 +00000-0 +20302-5 0  9995
2  1314 090.3081 284.2164 0028621 267.6632 266.3480 12.91749620204297
Epoch (UTC): 29 May 2017 21:13:13
Eccentricity: 0.0028621
inclination: 90.3081°
perigee height: 1272 km
apogee height: 1316 km
right ascension of ascending node: 284.2164°
argument of perigee: 267.6632°
revolutions per day: 12.91749620
mean anomaly at epoch: 266.3480°
orbit number at epoch: 20429

The dashed part of the orbit path shows where the satellite is in the earth's shadow,  

DLR